Year,Month,Day,Hour,Minute,Value (Times are PST for temperature in C)
2009,06,02,00,00,17.30
2009,06,02,00,01,17.30
2009,06,02,00,02,17.30
2009,06,02,00,03,17.30
2009,06,02,00,04,17.30
2009,06,02,00,05,17.30
2009,06,02,00,06,17.30
2009,06,02,00,07,17.20
2009,06,02,00,08,17.20
2009,06,02,00,09,17.10
2009,06,02,00,10,17.00
2009,06,02,00,11,17.00
2009,06,02,00,12,17.00
2009,06,02,00,13,16.90
2009,06,02,00,14,16.90
2009,06,02,00,15,16.80
2009,06,02,00,16,16.70
2009,06,02,00,17,16.70
2009,06,02,00,18,16.70
2009,06,02,00,19,16.60
2009,06,02,00,20,16.60
2009,06,02,00,21,16.50
2009,06,02,00,22,16.40
2009,06,02,00,23,16.40
2009,06,02,00,24,16.40
2009,06,02,00,25,16.40
2009,06,02,00,26,16.30
2009,06,02,00,27,16.30
2009,06,02,00,28,16.30
2009,06,02,00,29,16.20
2009,06,02,00,30,16.20
2009,06,02,00,31,16.20
2009,06,02,00,32,16.10
2009,06,02,00,33,16.10
2009,06,02,00,34,16.10
2009,06,02,00,35,16.10
2009,06,02,00,36,16.00
2009,06,02,00,37,15.90
2009,06,02,00,38,15.90
2009,06,02,00,39,15.80
2009,06,02,00,40,15.80
2009,06,02,00,41,15.80
2009,06,02,00,42,15.80
2009,06,02,00,43,15.70
2009,06,02,00,44,15.70
2009,06,02,00,45,15.70
2009,06,02,00,46,15.60
2009,06,02,00,47,15.60
2009,06,02,00,48,15.60
2009,06,02,00,49,15.60
2009,06,02,00,50,15.60
2009,06,02,00,51,15.60
2009,06,02,00,52,15.60
2009,06,02,00,53,15.60
2009,06,02,00,54,15.60
2009,06,02,00,55,15.70
2009,06,02,00,56,15.70
2009,06,02,00,57,15.70
2009,06,02,00,58,15.70
2009,06,02,00,59,15.70
2009,06,02,01,00,15.70
2009,06,02,01,01,15.70
2009,06,02,01,02,15.70
2009,06,02,01,03,15.70
2009,06,02,01,04,15.70
2009,06,02,01,05,15.70
2009,06,02,01,06,15.70
2009,06,02,01,07,15.70
2009,06,02,01,08,15.60
2009,06,02,01,09,15.60
2009,06,02,01,10,15.60
2009,06,02,01,11,15.50
2009,06,02,01,12,15.50
2009,06,02,01,13,15.50
2009,06,02,01,14,15.40
2009,06,02,01,15,15.40
2009,06,02,01,16,15.40
2009,06,02,01,17,15.30
2009,06,02,01,18,15.30
2009,06,02,01,19,15.30
2009,06,02,01,20,15.30
2009,06,02,01,21,15.30
2009,06,02,01,22,15.30
2009,06,02,01,23,15.30
2009,06,02,01,24,15.30
2009,06,02,01,25,15.20
2009,06,02,01,26,15.20
2009,06,02,01,27,15.20
2009,06,02,01,28,15.10
2009,06,02,01,29,15.10
2009,06,02,01,30,15.10
2009,06,02,01,31,15.10
2009,06,02,01,32,15.00
2009,06,02,01,33,15.00
2009,06,02,01,34,15.00
2009,06,02,01,35,14.90
2009,06,02,01,36,14.90
2009,06,02,01,37,14.90
2009,06,02,01,38,14.80
2009,06,02,01,39,14.80
2009,06,02,01,40,14.80
2009,06,02,01,41,14.80
2009,06,02,01,42,14.80
2009,06,02,01,43,14.80
2009,06,02,01,44,14.80
2009,06,02,01,45,14.80
2009,06,02,01,46,14.80
2009,06,02,01,47,14.80
2009,06,02,01,48,14.80
2009,06,02,01,49,14.80
2009,06,02,01,50,14.80
2009,06,02,01,51,14.70
2009,06,02,01,52,14.70
2009,06,02,01,53,14.70
2009,06,02,01,54,14.70
2009,06,02,01,55,14.70
2009,06,02,01,56,14.70
2009,06,02,01,57,14.70
2009,06,02,01,58,14.60
2009,06,02,01,59,14.60
2009,06,02,02,00,14.60
2009,06,02,02,01,14.60
2009,06,02,02,02,14.60
2009,06,02,02,03,14.60
2009,06,02,02,04,14.60
2009,06,02,02,05,14.60
2009,06,02,02,06,14.50
2009,06,02,02,07,14.50
2009,06,02,02,08,14.50
2009,06,02,02,09,14.50
2009,06,02,02,10,14.50
2009,06,02,02,11,14.50
2009,06,02,02,12,14.50
2009,06,02,02,13,14.40
2009,06,02,02,14,14.40
2009,06,02,02,15,14.40
2009,06,02,02,16,14.40
2009,06,02,02,17,14.40
2009,06,02,02,18,14.40
2009,06,02,02,19,14.40
2009,06,02,02,20,14.40
2009,06,02,02,21,14.40
2009,06,02,02,22,14.40
2009,06,02,02,23,14.40
2009,06,02,02,24,14.30
2009,06,02,02,25,14.30
2009,06,02,02,26,14.30
2009,06,02,02,27,14.30
2009,06,02,02,28,14.30
2009,06,02,02,29,14.20
2009,06,02,02,30,14.20
2009,06,02,02,31,14.20
2009,06,02,02,32,14.20
2009,06,02,02,33,14.20
2009,06,02,02,34,14.10
2009,06,02,02,35,14.10
2009,06,02,02,36,14.10
2009,06,02,02,37,14.00
2009,06,02,02,38,14.00
2009,06,02,02,39,14.00
2009,06,02,02,40,14.00
2009,06,02,02,41,13.90
2009,06,02,02,42,13.90
2009,06,02,02,43,13.90
2009,06,02,02,44,13.90
2009,06,02,02,45,13.90
2009,06,02,02,46,13.90
2009,06,02,02,47,13.90
2009,06,02,02,48,13.90
2009,06,02,02,49,13.90
2009,06,02,02,50,13.90
2009,06,02,02,51,14.00
2009,06,02,02,52,14.00
2009,06,02,02,53,13.90
2009,06,02,02,54,13.90
2009,06,02,02,55,14.00
2009,06,02,02,56,14.00
2009,06,02,02,57,14.00
2009,06,02,02,58,13.90
2009,06,02,02,59,13.90
2009,06,02,03,00,13.90
2009,06,02,03,01,13.90
2009,06,02,03,02,13.90
2009,06,02,03,03,13.90
2009,06,02,03,04,13.90
2009,06,02,03,05,13.90
2009,06,02,03,06,13.90
2009,06,02,03,07,13.90
2009,06,02,03,08,13.80
2009,06,02,03,09,13.80
2009,06,02,03,10,13.80
2009,06,02,03,11,13.80
2009,06,02,03,12,13.80
2009,06,02,03,13,13.80
2009,06,02,03,14,13.70
2009,06,02,03,15,13.70
2009,06,02,03,16,13.80
2009,06,02,03,17,13.80
2009,06,02,03,18,13.80
2009,06,02,03,19,13.80
2009,06,02,03,20,13.80
2009,06,02,03,21,13.80
2009,06,02,03,22,13.80
2009,06,02,03,23,13.80
2009,06,02,03,24,13.80
2009,06,02,03,25,13.80
2009,06,02,03,26,13.80
2009,06,02,03,27,13.80
2009,06,02,03,28,13.80
2009,06,02,03,29,13.80
2009,06,02,03,30,13.80
2009,06,02,03,31,13.80
2009,06,02,03,32,13.80
2009,06,02,03,33,13.80
2009,06,02,03,34,13.80
2009,06,02,03,35,13.70
2009,06,02,03,36,13.70
2009,06,02,03,37,13.70
2009,06,02,03,38,13.70
2009,06,02,03,39,13.70
2009,06,02,03,40,13.70
2009,06,02,03,41,13.70
2009,06,02,03,42,13.60
2009,06,02,03,43,13.60
2009,06,02,03,44,13.60
2009,06,02,03,45,13.60
2009,06,02,03,46,13.60
2009,06,02,03,47,13.50
2009,06,02,03,48,13.50
2009,06,02,03,49,13.50
2009,06,02,03,50,13.50
2009,06,02,03,51,13.40
2009,06,02,03,52,13.40
2009,06,02,03,53,13.40
2009,06,02,03,54,13.40
2009,06,02,03,55,13.30
2009,06,02,03,56,13.30
2009,06,02,03,57,13.30
2009,06,02,03,58,13.30
2009,06,02,03,59,13.30
2009,06,02,04,00,13.30
2009,06,02,04,01,13.30
2009,06,02,04,02,13.30
2009,06,02,04,03,13.30
2009,06,02,04,04,13.40
2009,06,02,04,05,13.40
2009,06,02,04,06,13.40
2009,06,02,04,07,13.50
2009,06,02,04,08,13.50
2009,06,02,04,09,13.50
2009,06,02,04,10,13.60
2009,06,02,04,11,13.60
2009,06,02,04,12,13.60
2009,06,02,04,13,13.60
2009,06,02,04,14,13.60
2009,06,02,04,15,13.60
2009,06,02,04,16,13.60
2009,06,02,04,17,13.50
2009,06,02,04,18,13.50
2009,06,02,04,19,13.50
2009,06,02,04,20,13.40
2009,06,02,04,21,13.40
2009,06,02,04,22,13.40
2009,06,02,04,23,13.40
2009,06,02,04,24,13.30
2009,06,02,04,25,13.30
2009,06,02,04,26,13.30
2009,06,02,04,27,13.30
2009,06,02,04,28,13.30
2009,06,02,04,29,13.30
2009,06,02,04,30,13.30
2009,06,02,04,31,13.30
2009,06,02,04,32,13.30
2009,06,02,04,33,13.30
2009,06,02,04,34,13.30
2009,06,02,04,35,13.30
2009,06,02,04,36,13.20
2009,06,02,04,37,13.20
2009,06,02,04,38,13.20
2009,06,02,04,39,13.20
2009,06,02,04,40,13.20
2009,06,02,04,41,13.20
2009,06,02,04,42,13.20
2009,06,02,04,43,13.20
2009,06,02,04,44,13.20
2009,06,02,04,45,13.20
2009,06,02,04,46,13.30
2009,06,02,04,47,13.30
2009,06,02,04,48,13.30
2009,06,02,04,49,13.30
2009,06,02,04,50,13.30
2009,06,02,04,51,13.30
2009,06,02,04,52,13.30
2009,06,02,04,53,13.30
2009,06,02,04,54,13.40
2009,06,02,04,55,13.40
2009,06,02,04,56,13.40
2009,06,02,04,57,13.40
2009,06,02,04,58,13.40
2009,06,02,04,59,13.40
2009,06,02,05,00,13.40
2009,06,02,05,01,13.40
2009,06,02,05,02,13.50
2009,06,02,05,03,13.50
2009,06,02,05,04,13.50
2009,06,02,05,05,13.60
2009,06,02,05,06,13.60
2009,06,02,05,07,13.70
2009,06,02,05,08,13.70
2009,06,02,05,09,13.70
2009,06,02,05,10,13.70
2009,06,02,05,11,13.70
2009,06,02,05,12,13.80
2009,06,02,05,13,13.80
2009,06,02,05,14,13.80
2009,06,02,05,15,13.80
2009,06,02,05,16,13.80
2009,06,02,05,17,13.80
2009,06,02,05,18,13.80
2009,06,02,05,19,13.80
2009,06,02,05,20,13.80
2009,06,02,05,21,13.80
2009,06,02,05,22,13.80
2009,06,02,05,23,13.80
2009,06,02,05,24,13.80
2009,06,02,05,25,13.80
2009,06,02,05,26,13.80
2009,06,02,05,27,13.80
2009,06,02,05,28,13.80
2009,06,02,05,29,13.80
2009,06,02,05,30,13.80
2009,06,02,05,31,13.80
2009,06,02,05,32,13.80
2009,06,02,05,33,13.80
2009,06,02,05,34,13.80
2009,06,02,05,35,13.80
2009,06,02,05,36,13.80
2009,06,02,05,37,13.80
2009,06,02,05,38,13.80
2009,06,02,05,39,13.70
2009,06,02,05,40,13.70
2009,06,02,05,41,13.70
2009,06,02,05,42,13.70
2009,06,02,05,43,13.70
2009,06,02,05,44,13.70
2009,06,02,05,45,13.70
2009,06,02,05,46,13.70
2009,06,02,05,47,13.70
2009,06,02,05,48,13.70
2009,06,02,05,49,13.70
2009,06,02,05,50,13.80
2009,06,02,05,51,13.80
2009,06,02,05,52,13.80
2009,06,02,05,53,13.90
2009,06,02,05,54,13.90
2009,06,02,05,55,13.90
2009,06,02,05,56,13.90
2009,06,02,05,57,13.90
2009,06,02,05,58,14.00
2009,06,02,05,59,14.00
2009,06,02,06,00,14.10
2009,06,02,06,01,14.20
2009,06,02,06,02,14.20
2009,06,02,06,03,14.20
2009,06,02,06,04,14.30
2009,06,02,06,05,14.30
2009,06,02,06,06,14.40
2009,06,02,06,07,14.40
2009,06,02,06,08,14.40
2009,06,02,06,09,14.40
2009,06,02,06,10,14.50
2009,06,02,06,11,14.50
2009,06,02,06,12,14.50
2009,06,02,06,13,14.50
2009,06,02,06,14,14.60
2009,06,02,06,15,14.60
2009,06,02,06,16,14.70
2009,06,02,06,17,14.80
2009,06,02,06,18,14.80
2009,06,02,06,19,15.00
2009,06,02,06,20,15.10
2009,06,02,06,21,15.10
2009,06,02,06,22,15.20
2009,06,02,06,23,15.20
2009,06,02,06,24,15.30
2009,06,02,06,25,15.30
2009,06,02,06,26,15.30
2009,06,02,06,27,15.30
2009,06,02,06,28,15.40
2009,06,02,06,29,15.50
2009,06,02,06,30,15.50
2009,06,02,06,31,15.60
2009,06,02,06,32,15.60
2009,06,02,06,33,15.60
2009,06,02,06,34,15.70
2009,06,02,06,35,15.70
2009,06,02,06,36,15.70
2009,06,02,06,37,15.70
2009,06,02,06,38,15.80
2009,06,02,06,39,15.80
2009,06,02,06,40,15.80
2009,06,02,06,41,15.80
2009,06,02,06,42,15.80
2009,06,02,06,43,15.80
2009,06,02,06,44,15.80
2009,06,02,06,45,15.80
2009,06,02,06,46,15.90
2009,06,02,06,47,15.90
2009,06,02,06,48,15.90
2009,06,02,06,49,15.90
2009,06,02,06,50,15.90
2009,06,02,06,51,15.90
2009,06,02,06,52,15.90
2009,06,02,06,53,16.00
2009,06,02,06,54,16.10
2009,06,02,06,55,16.10
2009,06,02,06,56,16.10
2009,06,02,06,57,16.10
2009,06,02,06,58,16.10
2009,06,02,06,59,16.10
2009,06,02,07,00,16.10
2009,06,02,07,01,16.10
2009,06,02,07,02,16.10
2009,06,02,07,03,16.10
2009,06,02,07,04,16.10
2009,06,02,07,05,16.20
2009,06,02,07,06,16.20
2009,06,02,07,07,16.30
2009,06,02,07,08,16.30
2009,06,02,07,09,16.40
2009,06,02,07,10,16.50
2009,06,02,07,11,16.60
2009,06,02,07,12,16.70
2009,06,02,07,13,16.70
2009,06,02,07,14,16.80
2009,06,02,07,15,16.90
2009,06,02,07,16,16.90
2009,06,02,07,17,17.00
2009,06,02,07,18,17.10
2009,06,02,07,19,17.20
2009,06,02,07,20,17.30
2009,06,02,07,21,17.30
2009,06,02,07,22,17.40
2009,06,02,07,23,17.50
2009,06,02,07,24,17.60
2009,06,02,07,25,17.70
2009,06,02,07,26,17.80
2009,06,02,07,27,18.00
2009,06,02,07,28,18.10
2009,06,02,07,29,18.20
2009,06,02,07,30,18.30
2009,06,02,07,31,18.40
2009,06,02,07,32,18.50
2009,06,02,07,33,18.60
2009,06,02,07,34,18.60
2009,06,02,07,35,18.70
2009,06,02,07,36,18.80
2009,06,02,07,37,18.90
2009,06,02,07,38,18.90
2009,06,02,07,39,19.00
2009,06,02,07,40,19.10
2009,06,02,07,41,19.10
2009,06,02,07,42,18.90
2009,06,02,07,43,18.90
2009,06,02,07,44,18.90
2009,06,02,07,45,18.80
2009,06,02,07,46,18.80
2009,06,02,07,47,18.80
2009,06,02,07,48,18.80
2009,06,02,07,49,18.80
2009,06,02,07,50,18.80
2009,06,02,07,51,18.80
2009,06,02,07,52,18.90
2009,06,02,07,53,18.90
2009,06,02,07,54,18.90
2009,06,02,07,55,18.90
2009,06,02,07,56,18.90
2009,06,02,07,57,18.90
2009,06,02,07,58,19.00
2009,06,02,07,59,19.10
2009,06,02,08,00,19.10
2009,06,02,08,01,19.10
2009,06,02,08,02,19.10
2009,06,02,08,03,19.20
2009,06,02,08,04,19.30
2009,06,02,08,05,19.30
2009,06,02,08,06,19.50
2009,06,02,08,07,19.60
2009,06,02,08,08,19.70
2009,06,02,08,09,19.90
2009,06,02,08,10,20.00
2009,06,02,08,11,20.10
2009,06,02,08,12,20.20
2009,06,02,08,13,20.30
2009,06,02,08,14,20.40
2009,06,02,08,15,20.50
2009,06,02,08,16,20.60
2009,06,02,08,17,20.60
2009,06,02,08,18,20.70
2009,06,02,08,19,20.80
2009,06,02,08,20,20.80
2009,06,02,08,21,20.90
2009,06,02,08,22,20.90
2009,06,02,08,23,21.00
2009,06,02,08,24,21.00
2009,06,02,08,25,21.10
2009,06,02,08,26,21.10
2009,06,02,08,27,21.10
2009,06,02,08,28,21.10
2009,06,02,08,29,21.10
2009,06,02,08,30,21.10
2009,06,02,08,31,21.10
2009,06,02,08,32,21.10
2009,06,02,08,33,21.10
2009,06,02,08,34,21.10
2009,06,02,08,35,21.10
2009,06,02,08,36,21.10
2009,06,02,08,37,21.10
2009,06,02,08,38,21.10
2009,06,02,08,39,21.10
2009,06,02,08,40,21.20
2009,06,02,08,41,21.20
2009,06,02,08,42,21.20
2009,06,02,08,43,21.10
2009,06,02,08,44,21.10
2009,06,02,08,45,21.00
2009,06,02,08,46,20.90
2009,06,02,08,47,20.80
2009,06,02,08,48,20.80
2009,06,02,08,49,20.80
2009,06,02,08,50,20.80
2009,06,02,08,51,20.90
2009,06,02,08,52,21.00
2009,06,02,08,53,21.00
2009,06,02,08,54,21.10
2009,06,02,08,55,21.10
2009,06,02,08,56,21.20
2009,06,02,08,57,21.20
2009,06,02,08,58,21.10
2009,06,02,08,59,21.10
2009,06,02,09,00,21.10
2009,06,02,09,01,21.20
2009,06,02,09,02,21.30
2009,06,02,09,03,21.30
2009,06,02,09,04,21.40
2009,06,02,09,05,21.60
2009,06,02,09,06,21.60
2009,06,02,09,07,21.70
2009,06,02,09,08,21.90
2009,06,02,09,09,22.00
2009,06,02,09,10,22.10
2009,06,02,09,11,22.20
2009,06,02,09,12,22.30
2009,06,02,09,13,22.40
2009,06,02,09,14,22.50
2009,06,02,09,15,22.60
2009,06,02,09,16,22.60
2009,06,02,09,17,22.70
2009,06,02,09,18,22.80
2009,06,02,09,19,22.90
2009,06,02,09,20,22.90
2009,06,02,09,21,23.00
2009,06,02,09,22,23.10
2009,06,02,09,23,23.10
2009,06,02,09,24,23.20
2009,06,02,09,25,23.30
2009,06,02,09,26,23.30
2009,06,02,09,27,23.30
2009,06,02,09,28,23.40
2009,06,02,09,29,23.40
2009,06,02,09,30,23.50
2009,06,02,09,31,23.60
2009,06,02,09,32,23.70
2009,06,02,09,33,23.70
2009,06,02,09,34,23.70
2009,06,02,09,35,23.60
2009,06,02,09,36,23.70
2009,06,02,09,37,23.70
2009,06,02,09,38,23.70
2009,06,02,09,39,23.90
2009,06,02,09,40,23.90
2009,06,02,09,41,23.90
2009,06,02,09,42,23.90
2009,06,02,09,43,23.90
2009,06,02,09,44,23.80
2009,06,02,09,45,23.80
2009,06,02,09,46,23.80
2009,06,02,09,47,23.80
2009,06,02,09,48,23.90
2009,06,02,09,49,24.00
2009,06,02,09,50,24.10
2009,06,02,09,51,24.20
2009,06,02,09,52,24.20
2009,06,02,09,53,24.20
2009,06,02,09,54,24.10
2009,06,02,09,55,24.10
2009,06,02,09,56,24.10
2009,06,02,09,57,24.10
2009,06,02,09,58,24.10
2009,06,02,09,59,24.10
2009,06,02,10,00,24.10
2009,06,02,10,01,24.10
2009,06,02,10,02,24.30
2009,06,02,10,03,24.30
2009,06,02,10,04,24.30
2009,06,02,10,05,24.30
2009,06,02,10,06,24.40
2009,06,02,10,07,24.50
2009,06,02,10,08,24.60
2009,06,02,10,09,24.70
2009,06,02,10,10,24.70
2009,06,02,10,11,24.70
2009,06,02,10,12,24.70
2009,06,02,10,13,24.70
2009,06,02,10,14,24.80
2009,06,02,10,15,24.80
2009,06,02,10,16,24.80
2009,06,02,10,17,24.80
2009,06,02,10,18,24.80
2009,06,02,10,19,24.70
2009,06,02,10,20,24.70
2009,06,02,10,21,24.80
2009,06,02,10,22,24.80
2009,06,02,10,23,24.80
2009,06,02,10,24,24.80
2009,06,02,10,25,24.90
2009,06,02,10,26,24.90
2009,06,02,10,27,24.80
2009,06,02,10,28,24.70
2009,06,02,10,29,24.60
2009,06,02,10,30,24.70
2009,06,02,10,31,24.70
2009,06,02,10,32,24.80
2009,06,02,10,33,24.90
2009,06,02,10,34,25.00
2009,06,02,10,35,25.10
2009,06,02,10,36,25.10
2009,06,02,10,37,25.10
2009,06,02,10,38,25.00
2009,06,02,10,39,24.90
2009,06,02,10,40,24.90
2009,06,02,10,41,24.90
2009,06,02,10,42,24.80
2009,06,02,10,43,24.80
2009,06,02,10,44,24.80
2009,06,02,10,45,24.80
2009,06,02,10,46,24.90
2009,06,02,10,47,24.90
2009,06,02,10,48,24.90
2009,06,02,10,49,24.80
2009,06,02,10,50,24.80
2009,06,02,10,51,24.80
2009,06,02,10,52,24.90
2009,06,02,10,53,24.90
2009,06,02,10,54,24.90
2009,06,02,10,55,25.10
2009,06,02,10,56,25.20
2009,06,02,10,57,25.30
2009,06,02,10,58,25.30
2009,06,02,10,59,25.30
2009,06,02,11,00,25.40
2009,06,02,11,01,25.50
2009,06,02,11,02,25.60
2009,06,02,11,03,25.70
2009,06,02,11,04,25.70
2009,06,02,11,05,25.70
2009,06,02,11,06,25.70
2009,06,02,11,07,25.80
2009,06,02,11,08,25.80
2009,06,02,11,09,25.90
2009,06,02,11,10,25.90
2009,06,02,11,11,25.90
2009,06,02,11,12,25.90
2009,06,02,11,13,25.90
2009,06,02,11,14,26.00
2009,06,02,11,15,26.00
2009,06,02,11,16,26.00
2009,06,02,11,17,26.10
2009,06,02,11,18,26.10
2009,06,02,11,19,26.10
2009,06,02,11,20,26.10
2009,06,02,11,21,26.10
2009,06,02,11,22,26.20
2009,06,02,11,23,26.20
2009,06,02,11,24,26.20
2009,06,02,11,25,26.20
2009,06,02,11,26,26.30
2009,06,02,11,27,26.30
2009,06,02,11,28,26.30
2009,06,02,11,29,26.20
2009,06,02,11,30,26.10
2009,06,02,11,31,26.00
2009,06,02,11,32,25.90
2009,06,02,11,33,25.90
2009,06,02,11,34,25.90
2009,06,02,11,35,25.90
2009,06,02,11,36,26.00
2009,06,02,11,37,26.10
2009,06,02,11,38,26.20
2009,06,02,11,39,26.20
2009,06,02,11,40,26.30
2009,06,02,11,41,26.30
2009,06,02,11,42,26.40
2009,06,02,11,43,26.60
2009,06,02,11,44,26.60
2009,06,02,11,45,26.60
2009,06,02,11,46,26.60
2009,06,02,11,47,26.60
2009,06,02,11,48,26.50
2009,06,02,11,49,26.40
2009,06,02,11,50,26.40
2009,06,02,11,51,26.40
2009,06,02,11,52,26.50
2009,06,02,11,53,26.60
2009,06,02,11,54,26.60
2009,06,02,11,55,26.70
2009,06,02,11,56,26.80
2009,06,02,11,57,26.90
2009,06,02,11,58,27.10
2009,06,02,11,59,27.10
2009,06,02,12,00,27.10
2009,06,02,12,01,27.10
2009,06,02,12,02,27.10
2009,06,02,12,03,27.20
2009,06,02,12,04,27.20
2009,06,02,12,05,27.00
2009,06,02,12,06,26.90
2009,06,02,12,07,26.90
2009,06,02,12,08,26.90
2009,06,02,12,09,26.80
2009,06,02,12,10,27.00
2009,06,02,12,11,27.10
2009,06,02,12,12,27.20
2009,06,02,12,13,27.20
2009,06,02,12,14,27.10
2009,06,02,12,15,27.10
2009,06,02,12,16,27.00
2009,06,02,12,17,27.00
2009,06,02,12,18,27.10
2009,06,02,12,19,27.20
2009,06,02,12,20,27.30
2009,06,02,12,21,27.40
2009,06,02,12,22,27.40
2009,06,02,12,23,27.40
2009,06,02,12,24,27.30
2009,06,02,12,25,27.30
2009,06,02,12,26,27.20
2009,06,02,12,27,27.20
2009,06,02,12,28,27.20
2009,06,02,12,29,27.20
2009,06,02,12,30,27.20
2009,06,02,12,31,27.20
2009,06,02,12,32,27.20
2009,06,02,12,33,27.10
2009,06,02,12,34,27.10
2009,06,02,12,35,27.10
2009,06,02,12,36,27.10
2009,06,02,12,37,27.20
2009,06,02,12,38,27.20
2009,06,02,12,39,27.20
2009,06,02,12,40,27.30
2009,06,02,12,41,27.30
2009,06,02,12,42,27.30
2009,06,02,12,43,27.30
2009,06,02,12,44,27.40
2009,06,02,12,45,27.40
2009,06,02,12,46,27.50
2009,06,02,12,47,27.40
2009,06,02,12,48,27.40
2009,06,02,12,49,27.60
2009,06,02,12,50,27.60
2009,06,02,12,51,27.60
2009,06,02,12,52,27.60
2009,06,02,12,53,27.70
2009,06,02,12,54,27.80
2009,06,02,12,55,27.90
2009,06,02,12,56,28.00
2009,06,02,12,57,28.20
2009,06,02,12,58,28.40
2009,06,02,12,59,28.40
2009,06,02,13,00,28.40
2009,06,02,13,01,28.40
2009,06,02,13,02,28.50
2009,06,02,13,03,28.50
2009,06,02,13,04,28.30
2009,06,02,13,05,28.30
2009,06,02,13,06,28.30
2009,06,02,13,07,28.30
2009,06,02,13,08,28.30
2009,06,02,13,09,28.30
2009,06,02,13,10,28.30
2009,06,02,13,11,28.20
2009,06,02,13,12,28.20
2009,06,02,13,13,28.20
2009,06,02,13,14,28.20
2009,06,02,13,15,28.00
2009,06,02,13,16,28.20
2009,06,02,13,17,28.30
2009,06,02,13,18,28.40
2009,06,02,13,19,28.40
2009,06,02,13,20,28.40
2009,06,02,13,21,28.40
2009,06,02,13,22,28.50
2009,06,02,13,23,28.60
2009,06,02,13,24,28.60
2009,06,02,13,25,28.50
2009,06,02,13,26,28.50
2009,06,02,13,27,28.60
2009,06,02,13,28,28.70
2009,06,02,13,29,28.80
2009,06,02,13,30,28.80
2009,06,02,13,31,28.90
2009,06,02,13,32,29.00
2009,06,02,13,33,29.10
2009,06,02,13,34,29.10
2009,06,02,13,35,29.10
2009,06,02,13,36,29.10
2009,06,02,13,37,29.30
2009,06,02,13,38,29.40
2009,06,02,13,39,29.30
2009,06,02,13,40,29.30
2009,06,02,13,41,29.30
2009,06,02,13,42,29.20
2009,06,02,13,43,29.20
2009,06,02,13,44,29.20
2009,06,02,13,45,29.30
2009,06,02,13,46,29.30
2009,06,02,13,47,29.30
2009,06,02,13,48,29.20
2009,06,02,13,49,29.10
2009,06,02,13,50,29.10
2009,06,02,13,51,29.20
2009,06,02,13,52,29.20
2009,06,02,13,53,29.20
2009,06,02,13,54,29.30
2009,06,02,13,55,29.40
2009,06,02,13,56,29.50
2009,06,02,13,57,29.70
2009,06,02,13,58,29.70
2009,06,02,13,59,29.80
2009,06,02,14,00,29.80
2009,06,02,14,01,29.80
2009,06,02,14,02,29.70
2009,06,02,14,03,29.50
2009,06,02,14,04,29.40
2009,06,02,14,05,29.40
2009,06,02,14,06,29.40
2009,06,02,14,07,29.40
2009,06,02,14,08,29.60
2009,06,02,14,09,29.70
2009,06,02,14,10,29.80
2009,06,02,14,11,29.80
2009,06,02,14,12,29.80
2009,06,02,14,13,29.80
2009,06,02,14,14,30.00
2009,06,02,14,15,29.90
2009,06,02,14,16,29.90
2009,06,02,14,17,29.80
2009,06,02,14,18,29.80
2009,06,02,14,19,29.80
2009,06,02,14,20,29.80
2009,06,02,14,21,29.70
2009,06,02,14,22,29.70
2009,06,02,14,23,29.60
2009,06,02,14,24,29.50
2009,06,02,14,25,29.60
2009,06,02,14,26,29.60
2009,06,02,14,27,29.50
2009,06,02,14,28,29.40
2009,06,02,14,29,29.20
2009,06,02,14,30,29.00
2009,06,02,14,31,28.90
2009,06,02,14,32,28.90
2009,06,02,14,33,28.90
2009,06,02,14,34,28.90
2009,06,02,14,35,29.00
2009,06,02,14,36,29.10
2009,06,02,14,37,29.10
2009,06,02,14,38,28.90
2009,06,02,14,39,28.90
2009,06,02,14,40,28.90
2009,06,02,14,41,29.00
2009,06,02,14,42,29.10
2009,06,02,14,43,29.00
2009,06,02,14,44,29.00
2009,06,02,14,45,28.90
2009,06,02,14,46,28.90
2009,06,02,14,47,28.90
2009,06,02,14,48,28.80
2009,06,02,14,49,28.90
2009,06,02,14,50,28.90
2009,06,02,14,51,29.10
2009,06,02,14,52,29.00
2009,06,02,14,53,28.90
2009,06,02,14,54,28.80
2009,06,02,14,55,28.80
2009,06,02,14,56,28.70
2009,06,02,14,57,28.80
2009,06,02,14,58,28.90
2009,06,02,14,59,29.00
2009,06,02,15,00,29.10
2009,06,02,15,01,29.20
2009,06,02,15,02,29.10
2009,06,02,15,03,28.90
2009,06,02,15,04,28.80
2009,06,02,15,05,28.70
2009,06,02,15,06,28.80
2009,06,02,15,07,28.80
2009,06,02,15,08,28.80
2009,06,02,15,09,28.90
2009,06,02,15,10,28.90
2009,06,02,15,11,28.90
2009,06,02,15,12,28.90
2009,06,02,15,13,28.90
2009,06,02,15,14,29.00
2009,06,02,15,15,29.10
2009,06,02,15,16,29.00
2009,06,02,15,17,28.90
2009,06,02,15,18,28.90
2009,06,02,15,19,28.90
2009,06,02,15,20,28.80
2009,06,02,15,21,28.90
2009,06,02,15,22,28.90
2009,06,02,15,23,28.80
2009,06,02,15,24,28.60
2009,06,02,15,25,28.60
2009,06,02,15,26,28.60
2009,06,02,15,27,28.60
2009,06,02,15,28,28.90
2009,06,02,15,29,28.90
2009,06,02,15,30,28.80
2009,06,02,15,31,28.80
2009,06,02,15,32,28.90
2009,06,02,15,33,28.90
2009,06,02,15,34,28.90
2009,06,02,15,35,28.90
2009,06,02,15,36,28.90
2009,06,02,15,37,28.90
2009,06,02,15,38,29.10
2009,06,02,15,39,29.10
2009,06,02,15,40,29.10
2009,06,02,15,41,29.10
2009,06,02,15,42,29.10
2009,06,02,15,43,29.10
2009,06,02,15,44,29.10
2009,06,02,15,45,29.20
2009,06,02,15,46,29.20
2009,06,02,15,47,29.30
2009,06,02,15,48,29.30
2009,06,02,15,49,29.30
2009,06,02,15,50,29.20
2009,06,02,15,51,29.20
2009,06,02,15,52,29.20
2009,06,02,15,53,29.20
2009,06,02,15,54,29.20
2009,06,02,15,55,29.10
2009,06,02,15,56,29.00
2009,06,02,15,57,28.90
2009,06,02,15,58,28.90
2009,06,02,15,59,28.90
2009,06,02,16,00,28.90
2009,06,02,16,01,28.90
2009,06,02,16,02,28.70
2009,06,02,16,03,28.60
2009,06,02,16,04,28.60
2009,06,02,16,05,28.50
2009,06,02,16,06,28.50
2009,06,02,16,07,28.60
2009,06,02,16,08,28.60
2009,06,02,16,09,28.70
2009,06,02,16,10,28.60
2009,06,02,16,11,28.60
2009,06,02,16,12,28.60
2009,06,02,16,13,28.60
2009,06,02,16,14,28.60
2009,06,02,16,15,28.70
2009,06,02,16,16,28.80
2009,06,02,16,17,28.80
2009,06,02,16,18,28.80
2009,06,02,16,19,28.80
2009,06,02,16,20,28.80
2009,06,02,16,21,28.70
2009,06,02,16,22,28.70
2009,06,02,16,23,28.70
2009,06,02,16,24,28.60
2009,06,02,16,25,28.60
2009,06,02,16,26,28.50
2009,06,02,16,27,28.40
2009,06,02,16,28,28.40
2009,06,02,16,29,28.40
2009,06,02,16,30,28.40
2009,06,02,16,31,28.40
2009,06,02,16,32,28.40
2009,06,02,16,33,28.60
2009,06,02,16,34,28.70
2009,06,02,16,35,28.70
2009,06,02,16,36,28.80
2009,06,02,16,37,28.90
2009,06,02,16,38,28.80
2009,06,02,16,39,28.80
2009,06,02,16,40,28.80
2009,06,02,16,41,28.90
2009,06,02,16,42,28.90
2009,06,02,16,43,29.00
2009,06,02,16,44,29.10
2009,06,02,16,45,29.20
2009,06,02,16,46,29.30
2009,06,02,16,47,29.30
2009,06,02,16,48,29.30
2009,06,02,16,49,29.40
2009,06,02,16,50,29.50
2009,06,02,16,51,29.50
2009,06,02,16,52,29.50
2009,06,02,16,53,29.50
2009,06,02,16,54,29.30
2009,06,02,16,55,29.10
2009,06,02,16,56,29.10
2009,06,02,16,57,29.10
2009,06,02,16,58,29.10
2009,06,02,16,59,29.10
2009,06,02,17,00,29.10
2009,06,02,17,01,29.00
2009,06,02,17,02,28.90
2009,06,02,17,03,28.90
2009,06,02,17,04,28.90
2009,06,02,17,05,28.90
2009,06,02,17,06,28.90
2009,06,02,17,07,29.00
2009,06,02,17,08,29.10
2009,06,02,17,09,29.10
2009,06,02,17,10,29.20
2009,06,02,17,11,29.20
2009,06,02,17,12,29.30
2009,06,02,17,13,29.40
2009,06,02,17,14,29.50
2009,06,02,17,15,29.50
2009,06,02,17,16,29.50
2009,06,02,17,17,29.50
2009,06,02,17,18,29.50
2009,06,02,17,19,29.60